Time,TemperatureF,DewpointF,PressureIn,WindDirection,WindDirectionDegrees,WindSpeedMPH,WindSpeedGustMPH,Humidity,HourlyPrecipIn,Conditions,Clouds,dailyrainin,SoftwareType,DateUTC
2013-08-24 00:01:00,58.5,54.3,29.39,East,90,0.0,0.0,86,0.00,CLR,,0.00,WeatherDisplay:10.37,2013-08-23 23:01:00,
2013-08-24 00:06:00,58.5,54.3,29.39,WSW,248,2.3,2.3,86,0.00,CLR,,0.00,WeatherDisplay:10.37,2013-08-23 23:06:00,
2013-08-24 00:11:00,58.3,54.1,29.39,West,270,0.0,0.0,86,0.00,CLR,,0.00,WeatherDisplay:10.37,2013-08-23 23:11:00,
2013-08-24 00:16:00,58.3,54.1,29.39,West,270,0.0,0.0,86,0.00,CLR,,0.00,WeatherDisplay:10.37,2013-08-23 23:16:00,
2013-08-24 00:21:00,58.3,54.1,29.39,West,270,0.0,0.0,86,0.00,CLR,,0.00,WeatherDisplay:10.37,2013-08-23 23:21:00,
2013-08-24 00:26:00,58.3,54.1,29.39,SW,225,0.0,0.0,86,0.00,CLR,,0.00,WeatherDisplay:10.37,2013-08-23 23:26:00,
2013-08-24 00:31:00,58.3,54.1,29.39,West,270,0.0,0.0,86,0.00,CLR,,0.00,WeatherDisplay:10.37,2013-08-23 23:31:00,
2013-08-24 00:36:00,58.3,54.1,29.39,West,270,0.0,0.0,86,0.00,CLR,,0.00,WeatherDisplay:10.37,2013-08-23 23:36:00,
2013-08-24 00:41:00,58.3,54.1,29.39,West,270,0.0,0.0,86,0.00,CLR,,0.00,WeatherDisplay:10.37,2013-08-23 23:41:00,
2013-08-24 00:46:00,58.3,54.1,29.39,West,270,0.0,0.0,86,0.00,CLR,,0.00,WeatherDisplay:10.37,2013-08-23 23:46:00,
2013-08-24 00:51:00,58.1,53.9,29.39,West,270,0.0,0.0,86,0.00,CLR,,0.00,WeatherDisplay:10.37,2013-08-23 23:51:00,
2013-08-24 00:56:00,58.3,54.1,29.39,West,270,0.0,0.0,86,0.00,CLR,,0.00,WeatherDisplay:10.37,2013-08-23 23:56:00,
2013-08-24 01:01:00,58.1,53.9,29.40,WSW,248,0.0,0.0,86,0.00,CLR,,0.00,WeatherDisplay:10.37,2013-08-24 00:01:00,
2013-08-24 01:06:00,58.1,53.9,29.40,WNW,292,0.0,0.0,86,0.00,CLR,,0.00,WeatherDisplay:10.37,2013-08-24 00:06:00,
2013-08-24 01:11:00,57.9,53.8,29.40,West,270,0.0,0.0,86,0.00,CLR,,0.00,WeatherDisplay:10.37,2013-08-24 00:11:00,
2013-08-24 01:16:00,57.9,53.8,29.40,NW,315,0.0,0.0,86,0.00,CLR,,0.00,WeatherDisplay:10.37,2013-08-24 00:16:00,
2013-08-24 01:21:00,57.9,53.8,29.40,NW,315,0.0,0.0,86,0.00,CLR,,0.00,WeatherDisplay:10.37,2013-08-24 00:21:00,
2013-08-24 01:26:00,57.9,53.8,29.39,NNW,338,0.0,0.0,86,0.00,CLR,,0.00,WeatherDisplay:10.37,2013-08-24 00:26:00,
2013-08-24 01:31:00,57.9,53.8,29.39,NNW,338,0.0,0.0,86,0.00,CLR,,0.00,WeatherDisplay:10.37,2013-08-24 00:31:00,
2013-08-24 01:36:00,57.9,53.8,29.39,NNW,338,0.0,0.0,86,0.00,CLR,,0.00,WeatherDisplay:10.37,2013-08-24 00:36:00,
2013-08-24 01:41:00,57.9,53.8,29.39,NNW,338,0.0,0.0,86,0.00,CLR,,0.00,WeatherDisplay:10.37,2013-08-24 00:41:00,
2013-08-24 01:46:00,57.9,53.8,29.39,NNW,338,0.0,0.0,86,0.00,CLR,,0.00,WeatherDisplay:10.37,2013-08-24 00:46:00,
2013-08-24 01:51:00,57.9,53.8,29.39,NNE,22,0.0,0.0,86,0.00,CLR,,0.00,WeatherDisplay:10.37,2013-08-24 00:51:00,
2013-08-24 01:56:00,57.7,53.6,29.39,NE,45,0.0,0.0,86,0.00,CLR,,0.00,WeatherDisplay:10.37,2013-08-24 00:56:00,
2013-08-24 02:01:00,57.7,53.6,29.39,West,270,0.0,0.0,86,0.00,CLR,,0.00,WeatherDisplay:10.37,2013-08-24 01:01:00,
2013-08-24 02:06:00,57.7,53.6,29.39,West,270,0.0,0.0,86,0.00,CLR,,0.00,WeatherDisplay:10.37,2013-08-24 01:06:00,
2013-08-24 02:11:00,57.6,53.4,29.39,WSW,248,0.0,0.0,86,0.00,CLR,,0.00,WeatherDisplay:10.37,2013-08-24 01:11:00,
2013-08-24 02:16:00,57.7,53.6,29.39,SW,225,0.0,0.0,86,0.00,CLR,,0.00,WeatherDisplay:10.37,2013-08-24 01:16:00,
2013-08-24 02:21:00,57.6,53.4,29.39,West,270,0.0,0.0,86,0.00,CLR,,0.00,WeatherDisplay:10.37,2013-08-24 01:21:00,
2013-08-24 02:26:00,57.6,53.4,29.39,WSW,248,0.0,0.0,86,0.00,CLR,,0.00,WeatherDisplay:10.37,2013-08-24 01:26:00,
2013-08-24 02:31:00,57.4,53.2,29.40,SW,225,1.2,1.2,86,0.00,CLR,,0.00,WeatherDisplay:10.37,2013-08-24 01:31:00,
2013-08-24 02:36:00,57.4,53.2,29.40,West,270,1.2,1.2,86,0.02,RA,,0.02,WeatherDisplay:10.37,2013-08-24 01:36:00,
2013-08-24 02:41:00,57.4,53.2,29.39,West,270,0.0,0.0,86,0.02,RA,,0.02,WeatherDisplay:10.37,2013-08-24 01:41:00,
2013-08-24 02:46:00,57.4,53.5,29.39,WSW,248,0.0,0.0,87,0.02,CLR,,0.02,WeatherDisplay:10.37,2013-08-24 01:46:00,
2013-08-24 02:51:00,57.0,53.2,29.39,West,270,0.0,0.0,87,0.02,CLR,,0.02,WeatherDisplay:10.37,2013-08-24 01:51:00,
2013-08-24 02:56:00,57.0,53.2,29.39,West,270,0.0,0.0,87,0.02,CLR,,0.02,WeatherDisplay:10.37,2013-08-24 01:56:00,
2013-08-24 03:01:00,57.0,53.2,29.39,NNW,338,0.0,0.0,87,0.02,CLR,,0.02,WeatherDisplay:10.37,2013-08-24 02:01:00,
2013-08-24 03:06:00,57.0,53.2,29.39,North,0,0.0,0.0,87,0.02,CLR,,0.02,WeatherDisplay:10.37,2013-08-24 02:06:00,
2013-08-24 03:11:00,57.0,53.2,29.39,North,0,0.0,0.0,87,0.02,CLR,,0.02,WeatherDisplay:10.37,2013-08-24 02:11:00,
2013-08-24 03:16:00,57.0,53.2,29.39,North,0,0.0,0.0,87,0.02,CLR,,0.02,WeatherDisplay:10.37,2013-08-24 02:16:00,
2013-08-24 03:21:00,57.0,53.5,29.39,North,0,0.0,0.0,88,0.02,CLR,,0.02,WeatherDisplay:10.37,2013-08-24 02:21:00,
2013-08-24 03:26:00,57.0,53.5,29.39,North,0,0.0,0.0,88,0.02,CLR,,0.02,WeatherDisplay:10.37,2013-08-24 02:26:00,
2013-08-24 03:31:00,57.0,53.5,29.39,NNW,338,0.0,0.0,88,0.02,CLR,,0.02,WeatherDisplay:10.37,2013-08-24 02:31:00,
2013-08-24 03:36:00,57.0,53.5,29.39,North,0,0.0,0.0,88,0.00,CLR,,0.02,WeatherDisplay:10.37,2013-08-24 02:36:00,
2013-08-24 03:41:00,57.0,53.5,29.39,North,0,0.0,0.0,88,0.00,CLR,,0.02,WeatherDisplay:10.37,2013-08-24 02:41:00,
2013-08-24 03:46:00,57.0,53.5,29.39,North,0,0.0,0.0,88,0.00,CLR,,0.02,WeatherDisplay:10.37,2013-08-24 02:46:00,
2013-08-24 03:51:00,57.0,53.5,29.39,North,0,0.0,0.0,88,0.00,CLR,,0.02,WeatherDisplay:10.37,2013-08-24 02:51:00,
2013-08-24 03:56:00,57.0,53.5,29.39,North,0,0.0,0.0,88,0.00,CLR,,0.02,WeatherDisplay:10.37,2013-08-24 02:56:00,
2013-08-24 04:01:00,57.0,53.5,29.39,North,0,0.0,0.0,88,0.00,CLR,,0.02,WeatherDisplay:10.37,2013-08-24 03:01:00,
2013-08-24 04:06:00,56.8,53.3,29.38,NNE,22,0.0,0.0,88,0.00,CLR,,0.02,WeatherDisplay:10.37,2013-08-24 03:06:00,
2013-08-24 04:11:00,56.8,53.3,29.38,NE,45,0.0,0.0,88,0.00,CLR,,0.02,WeatherDisplay:10.37,2013-08-24 03:11:00,
2013-08-24 04:16:00,56.8,53.3,29.38,NE,45,0.0,0.0,88,0.00,CLR,,0.02,WeatherDisplay:10.37,2013-08-24 03:16:00,
2013-08-24 04:21:00,56.8,53.3,29.38,NE,45,0.0,0.0,88,0.00,CLR,,0.02,WeatherDisplay:10.37,2013-08-24 03:21:00,
2013-08-24 04:26:00,56.8,53.3,29.39,NE,45,0.0,0.0,88,0.00,CLR,,0.02,WeatherDisplay:10.37,2013-08-24 03:26:00,
2013-08-24 04:31:00,56.8,53.3,29.39,ESE,112,2.3,2.3,88,0.00,CLR,,0.02,WeatherDisplay:10.37,2013-08-24 03:31:00,
2013-08-24 04:36:00,56.8,53.3,29.38,ESE,112,0.0,1.3,88,0.00,CLR,,0.02,WeatherDisplay:10.37,2013-08-24 03:36:00,
2013-08-24 04:41:00,56.8,53.3,29.38,ESE,112,2.3,2.3,88,0.00,CLR,,0.02,WeatherDisplay:10.37,2013-08-24 03:41:00,
2013-08-24 04:46:00,56.7,53.1,29.39,ESE,112,0.0,0.0,88,0.00,CLR,,0.02,WeatherDisplay:10.37,2013-08-24 03:46:00,
2013-08-24 04:51:00,56.7,53.1,29.39,ESE,112,0.0,0.0,88,0.00,CLR,,0.02,WeatherDisplay:10.37,2013-08-24 03:51:00,
2013-08-24 04:56:00,56.5,53.0,29.39,SE,135,0.0,0.6,88,0.00,CLR,,0.02,WeatherDisplay:10.37,2013-08-24 03:56:00,
2013-08-24 05:01:00,56.5,53.0,29.39,ESE,112,0.0,1.1,88,0.00,CLR,,0.02,WeatherDisplay:10.37,2013-08-24 04:01:00,
2013-08-24 05:06:00,56.5,53.0,29.39,ESE,112,0.0,0.0,88,0.00,CLR,,0.02,WeatherDisplay:10.37,2013-08-24 04:06:00,
2013-08-24 05:11:00,56.7,53.1,29.39,WSW,248,0.0,0.0,88,0.00,CLR,,0.02,WeatherDisplay:10.37,2013-08-24 04:11:00,
2013-08-24 05:16:00,56.7,53.1,29.39,WSW,248,0.0,0.0,88,0.00,CLR,,0.02,WeatherDisplay:10.37,2013-08-24 04:16:00,
2013-08-24 05:21:00,56.7,53.1,29.39,WSW,248,0.0,0.0,88,0.00,CLR,,0.02,WeatherDisplay:10.37,2013-08-24 04:21:00,
2013-08-24 05:26:00,56.7,53.1,29.38,WSW,248,0.0,0.0,88,0.00,CLR,,0.02,WeatherDisplay:10.37,2013-08-24 04:26:00,
2013-08-24 05:31:00,56.5,53.3,29.39,WSW,248,0.0,0.0,89,0.00,CLR,,0.02,WeatherDisplay:10.37,2013-08-24 04:31:00,
2013-08-24 05:36:00,56.7,53.5,29.39,WSW,248,0.0,0.0,89,0.00,CLR,,0.02,WeatherDisplay:10.37,2013-08-24 04:36:00,
2013-08-24 05:41:00,56.7,53.5,29.39,West,270,0.0,0.0,89,0.00,CLR,,0.02,WeatherDisplay:10.37,2013-08-24 04:41:00,
2013-08-24 05:46:00,56.5,53.3,29.39,West,270,0.0,0.0,89,0.00,CLR,,0.02,WeatherDisplay:10.37,2013-08-24 04:46:00,
2013-08-24 05:51:00,56.5,53.3,29.39,West,270,0.0,0.0,89,0.00,CLR,,0.02,WeatherDisplay:10.37,2013-08-24 04:51:00,
2013-08-24 05:56:00,56.5,53.3,29.39,West,270,0.0,0.0,89,0.00,CLR,,0.02,WeatherDisplay:10.37,2013-08-24 04:56:00,
2013-08-24 06:01:00,56.5,53.3,29.39,WSW,248,0.0,0.0,89,0.00,CLR,,0.02,WeatherDisplay:10.37,2013-08-24 05:01:00,
2013-08-24 06:06:00,56.5,53.3,29.39,SW,225,0.0,0.0,89,0.00,CLR,,0.02,WeatherDisplay:10.37,2013-08-24 05:06:00,
2013-08-24 06:11:00,56.5,53.3,29.39,SW,225,0.0,0.0,89,0.00,CLR,,0.02,WeatherDisplay:10.37,2013-08-24 05:11:00,
2013-08-24 06:16:00,56.5,53.3,29.39,SW,225,0.0,0.0,89,0.00,CLR,,0.02,WeatherDisplay:10.37,2013-08-24 05:16:00,
2013-08-24 06:21:00,56.5,53.3,29.39,WSW,248,0.0,0.0,89,0.00,CLR,,0.02,WeatherDisplay:10.37,2013-08-24 05:21:00,
2013-08-24 06:26:00,56.5,53.3,29.40,SW,225,0.0,0.0,89,0.00,CLR,,0.02,WeatherDisplay:10.37,2013-08-24 05:26:00,
2013-08-24 06:31:00,56.5,53.3,29.40,SSW,202,0.0,0.0,89,0.00,CLR,,0.02,WeatherDisplay:10.37,2013-08-24 05:31:00,
2013-08-24 06:36:00,56.5,53.3,29.40,SSW,202,0.0,0.0,89,0.00,CLR,,0.02,WeatherDisplay:10.37,2013-08-24 05:36:00,
2013-08-24 06:41:00,56.5,53.3,29.40,South,180,0.0,0.0,89,0.00,CLR,,0.02,WeatherDisplay:10.37,2013-08-24 05:41:00,
2013-08-24 06:46:00,56.5,53.3,29.40,South,180,0.0,0.0,89,0.00,CLR,,0.02,WeatherDisplay:10.37,2013-08-24 05:46:00,
2013-08-24 06:51:00,56.5,53.3,29.40,SW,225,0.0,0.0,89,0.00,CLR,,0.02,WeatherDisplay:10.37,2013-08-24 05:51:00,
2013-08-24 06:56:00,56.5,53.3,29.40,West,270,0.0,0.0,89,0.00,CLR,,0.02,WeatherDisplay:10.37,2013-08-24 05:56:00,
2013-08-24 07:01:00,56.5,53.3,29.40,West,270,3.5,3.5,89,0.00,CLR,,0.02,WeatherDisplay:10.37,2013-08-24 06:01:00,
2013-08-24 07:06:00,56.5,53.6,29.40,WSW,248,1.2,2.7,90,0.00,CLR,,0.02,WeatherDisplay:10.37,2013-08-24 06:06:00,
2013-08-24 07:11:00,56.5,53.6,29.40,WNW,292,0.0,0.0,90,0.00,CLR,,0.02,WeatherDisplay:10.37,2013-08-24 06:11:00,
2013-08-24 07:16:00,56.5,53.6,29.40,WSW,248,0.0,1.7,90,0.00,CLR,,0.02,WeatherDisplay:10.37,2013-08-24 06:16:00,
2013-08-24 07:21:00,56.3,53.4,29.40,SW,225,3.5,3.5,90,0.00,CLR,,0.02,WeatherDisplay:10.37,2013-08-24 06:21:00,
2013-08-24 07:26:00,56.3,53.4,29.40,SW,225,1.2,2.9,90,0.00,CLR,,0.02,WeatherDisplay:10.37,2013-08-24 06:26:00,
2013-08-24 07:31:00,56.3,53.4,29.41,West,270,2.3,2.3,90,0.00,CLR,,0.02,WeatherDisplay:10.37,2013-08-24 06:31:00,
2013-08-24 07:36:00,56.3,53.4,29.40,WSW,248,1.2,1.4,90,0.00,CLR,,0.02,WeatherDisplay:10.37,2013-08-24 06:36:00,
2013-08-24 07:41:00,56.3,53.4,29.40,SSE,158,2.3,2.3,90,0.00,CLR,,0.02,WeatherDisplay:10.37,2013-08-24 06:41:00,
2013-08-24 07:46:00,56.3,53.4,29.41,SW,225,2.3,4.5,90,0.00,CLR,,0.02,WeatherDisplay:10.37,2013-08-24 06:46:00,
2013-08-24 07:51:00,56.3,53.4,29.41,SW,225,6.9,6.9,90,0.00,CLR,,0.02,WeatherDisplay:10.37,2013-08-24 06:51:00,
2013-08-24 07:56:00,56.3,53.4,29.41,WSW,248,3.5,3.5,90,0.00,CLR,,0.02,WeatherDisplay:10.37,2013-08-24 06:56:00,
2013-08-24 08:01:00,56.3,53.4,29.41,West,270,3.5,3.5,90,0.00,CLR,,0.02,WeatherDisplay:10.37,2013-08-24 07:01:00,
2013-08-24 08:06:00,56.1,53.2,29.41,WSW,248,2.3,8.4,90,0.00,CLR,,0.02,WeatherDisplay:10.37,2013-08-24 07:06:00,
2013-08-24 08:11:00,56.1,53.2,29.41,SW,225,3.5,3.5,90,0.00,CLR,,0.02,WeatherDisplay:10.37,2013-08-24 07:11:00,
2013-08-24 08:16:00,56.1,53.2,29.41,SW,225,2.3,2.4,90,0.00,CLR,,0.02,WeatherDisplay:10.37,2013-08-24 07:16:00,
2013-08-24 08:21:00,56.1,53.2,29.41,SW,225,2.3,2.3,90,0.02,RA,,0.04,WeatherDisplay:10.37,2013-08-24 07:21:00,
2013-08-24 08:26:00,56.1,53.2,29.41,WSW,248,8.1,8.1,90,0.02,RA,,0.04,WeatherDisplay:10.37,2013-08-24 07:26:00,
2013-08-24 08:31:00,55.9,53.0,29.42,WNW,292,3.5,3.5,90,0.02,CLR,,0.04,WeatherDisplay:10.37,2013-08-24 07:31:00,
2013-08-24 08:36:00,55.9,53.0,29.42,West,270,3.5,3.5,90,0.02,CLR,,0.04,WeatherDisplay:10.37,2013-08-24 07:36:00,
2013-08-24 08:41:00,55.8,52.9,29.42,WSW,248,3.5,3.6,90,0.02,CLR,,0.04,WeatherDisplay:10.37,2013-08-24 07:41:00,
2013-08-24 08:46:00,55.8,52.9,29.42,SW,225,3.5,3.5,90,0.02,CLR,,0.04,WeatherDisplay:10.37,2013-08-24 07:46:00,
2013-08-24 08:51:00,55.8,52.9,29.42,WSW,248,6.9,6.9,90,0.02,CLR,,0.04,WeatherDisplay:10.37,2013-08-24 07:51:00,
2013-08-24 08:56:00,55.6,52.7,29.42,SSW,202,4.6,5.9,90,0.02,CLR,,0.04,WeatherDisplay:10.37,2013-08-24 07:56:00,
2013-08-24 09:01:00,55.6,52.7,29.42,West,270,9.2,9.2,90,0.02,CLR,,0.04,WeatherDisplay:10.37,2013-08-24 08:01:00,
2013-08-24 09:06:00,55.6,52.7,29.42,West,270,4.6,4.6,90,0.02,CLR,,0.04,WeatherDisplay:10.37,2013-08-24 08:06:00,
2013-08-24 09:11:00,55.6,52.7,29.42,SE,135,6.9,6.9,90,0.02,CLR,,0.04,WeatherDisplay:10.37,2013-08-24 08:11:00,
2013-08-24 09:16:00,55.4,52.5,29.42,SW,225,5.8,6.3,90,0.02,CLR,,0.04,WeatherDisplay:10.37,2013-08-24 08:16:00,
2013-08-24 09:21:00,55.4,52.5,29.43,West,270,3.5,3.6,90,0.00,CLR,,0.04,WeatherDisplay:10.37,2013-08-24 08:21:00,
2013-08-24 09:26:00,55.6,52.7,29.43,SW,225,4.6,5.7,90,0.00,CLR,,0.04,WeatherDisplay:10.37,2013-08-24 08:26:00,
2013-08-24 09:31:00,55.6,52.7,29.42,West,270,2.3,2.4,90,0.00,CLR,,0.04,WeatherDisplay:10.37,2013-08-24 08:31:00,
2013-08-24 09:36:00,55.6,52.7,29.42,West,270,3.5,3.5,90,0.00,CLR,,0.04,WeatherDisplay:10.37,2013-08-24 08:36:00,
2013-08-24 09:41:00,55.9,53.0,29.42,SSW,202,8.1,8.1,90,0.00,CLR,,0.04,WeatherDisplay:10.37,2013-08-24 08:41:00,
2013-08-24 09:46:00,55.9,53.4,29.43,WSW,248,5.8,5.8,91,0.00,CLR,,0.04,WeatherDisplay:10.37,2013-08-24 08:46:00,
2013-08-24 09:51:00,55.9,53.4,29.43,WNW,292,4.6,4.6,91,0.00,CLR,,0.04,WeatherDisplay:10.37,2013-08-24 08:51:00,
2013-08-24 09:56:00,56.1,53.5,29.42,West,270,3.5,3.5,91,0.00,CLR,,0.04,WeatherDisplay:10.37,2013-08-24 08:56:00,
2013-08-24 10:01:00,56.3,53.7,29.42,WSW,248,1.2,1.5,91,0.00,CLR,,0.04,WeatherDisplay:10.37,2013-08-24 09:01:00,
2013-08-24 10:06:00,56.5,53.9,29.42,WNW,292,3.5,3.8,91,0.00,CLR,,0.04,WeatherDisplay:10.37,2013-08-24 09:06:00,
2013-08-24 10:11:00,56.5,53.9,29.42,West,270,4.6,4.6,91,0.00,CLR,,0.04,WeatherDisplay:10.37,2013-08-24 09:11:00,
2013-08-24 10:16:00,56.8,54.2,29.42,West,270,1.2,2.2,91,0.00,CLR,,0.04,WeatherDisplay:10.37,2013-08-24 09:16:00,
2013-08-24 10:21:00,57.0,54.4,29.42,SW,225,6.9,6.9,91,0.00,CLR,,0.04,WeatherDisplay:10.37,2013-08-24 09:21:00,
2013-08-24 10:26:00,57.0,54.4,29.42,West,270,0.0,3.4,91,0.00,CLR,,0.04,WeatherDisplay:10.37,2013-08-24 09:26:00,
2013-08-24 10:31:00,57.4,54.8,29.42,SSW,202,3.5,3.5,91,0.00,CLR,,0.04,WeatherDisplay:10.37,2013-08-24 09:31:00,
2013-08-24 10:36:00,57.4,54.8,29.42,WNW,292,1.2,1.9,91,0.00,CLR,,0.04,WeatherDisplay:10.37,2013-08-24 09:36:00,
2013-08-24 10:41:00,57.4,54.5,29.42,WSW,248,4.6,4.6,90,0.00,CLR,,0.04,WeatherDisplay:10.37,2013-08-24 09:41:00,
2013-08-24 10:46:00,57.6,54.6,29.42,West,270,2.3,4.2,90,0.00,CLR,,0.04,WeatherDisplay:10.37,2013-08-24 09:46:00,
2013-08-24 10:51:00,57.6,54.6,29.42,WSW,248,1.2,1.2,90,0.00,CLR,,0.04,WeatherDisplay:10.37,2013-08-24 09:51:00,
2013-08-24 10:56:00,57.6,54.3,29.42,WSW,248,9.2,9.2,89,0.00,CLR,,0.04,WeatherDisplay:10.37,2013-08-24 09:56:00,
2013-08-24 11:01:00,57.7,54.5,29.42,NW,315,3.5,3.5,89,0.00,CLR,,0.04,WeatherDisplay:10.37,2013-08-24 10:01:00,
2013-08-24 11:06:00,57.9,54.7,29.42,WSW,248,2.3,2.3,89,0.00,CLR,,0.04,WeatherDisplay:10.37,2013-08-24 10:06:00,
2013-08-24 11:11:00,57.9,54.7,29.42,WSW,248,5.8,5.8,89,0.00,CLR,,0.04,WeatherDisplay:10.37,2013-08-24 10:11:00,
2013-08-24 11:16:00,58.1,54.9,29.42,West,270,2.3,2.3,89,0.00,CLR,,0.04,WeatherDisplay:10.37,2013-08-24 10:16:00,
2013-08-24 11:21:00,58.3,55.1,29.42,WSW,248,3.5,3.5,89,0.00,CLR,,0.04,WeatherDisplay:10.37,2013-08-24 10:21:00,
2013-08-24 11:26:00,58.3,55.1,29.42,WSW,248,2.3,2.3,89,0.00,CLR,,0.04,WeatherDisplay:10.37,2013-08-24 10:26:00,
2013-08-24 11:31:00,58.3,54.7,29.41,SW,225,3.5,3.5,88,0.00,CLR,,0.04,WeatherDisplay:10.37,2013-08-24 10:31:00,
2013-08-24 11:36:00,58.3,54.7,29.41,WNW,292,0.0,0.0,88,0.00,CLR,,0.04,WeatherDisplay:10.37,2013-08-24 10:36:00,
2013-08-24 11:41:00,58.5,54.9,29.41,SW,225,2.3,2.3,88,0.00,CLR,,0.04,WeatherDisplay:10.37,2013-08-24 10:41:00,
2013-08-24 11:46:00,58.6,55.1,29.41,South,180,0.0,0.0,88,0.00,CLR,,0.04,WeatherDisplay:10.37,2013-08-24 10:46:00,
2013-08-24 11:51:00,58.8,55.0,29.41,WSW,248,4.6,4.6,87,0.00,CLR,,0.04,WeatherDisplay:10.37,2013-08-24 10:51:00,
2013-08-24 11:56:00,58.8,55.0,29.41,SW,225,2.3,2.5,87,0.00,CLR,,0.04,WeatherDisplay:10.37,2013-08-24 10:56:00,
2013-08-24 12:01:00,59.2,55.3,29.42,WSW,248,3.5,3.5,87,0.00,CLR,,0.04,WeatherDisplay:10.37,2013-08-24 11:01:00,
2013-08-24 12:06:00,59.4,55.5,29.42,West,270,3.5,3.5,87,0.00,CLR,,0.04,WeatherDisplay:10.37,2013-08-24 11:06:00,
2013-08-24 12:11:00,59.4,55.5,29.42,WSW,248,4.6,4.6,87,0.00,CLR,,0.04,WeatherDisplay:10.37,2013-08-24 11:11:00,
2013-08-24 12:16:00,59.5,55.7,29.42,WSW,248,2.3,4.6,87,0.00,CLR,,0.04,WeatherDisplay:10.37,2013-08-24 11:16:00,
2013-08-24 12:21:00,59.5,55.3,29.42,NNW,338,1.2,3.8,86,0.00,CLR,,0.04,WeatherDisplay:10.37,2013-08-24 11:21:00,
2013-08-24 12:26:00,59.5,55.3,29.42,WSW,248,4.6,4.6,86,0.00,CLR,,0.04,WeatherDisplay:10.37,2013-08-24 11:26:00,
2013-08-24 12:31:00,59.7,55.5,29.42,SW,225,4.6,4.6,86,0.00,CLR,,0.04,WeatherDisplay:10.37,2013-08-24 11:31:00,
2013-08-24 12:36:00,59.7,55.2,29.42,SW,225,1.2,1.2,85,0.00,CLR,,0.04,WeatherDisplay:10.37,2013-08-24 11:36:00,
2013-08-24 12:41:00,59.9,55.4,29.42,WNW,292,3.5,3.5,85,0.00,CLR,,0.04,WeatherDisplay:10.37,2013-08-24 11:41:00,
2013-08-24 12:46:00,60.1,55.6,29.42,NNE,22,0.0,2.6,85,0.00,CLR,,0.04,WeatherDisplay:10.37,2013-08-24 11:46:00,
2013-08-24 12:51:00,60.4,55.9,29.42,South,180,2.3,2.3,85,0.00,CLR,,0.04,WeatherDisplay:10.37,2013-08-24 11:51:00,
2013-08-24 12:56:00,60.6,56.1,29.42,ESE,112,2.3,3.9,85,0.00,CLR,,0.04,WeatherDisplay:10.37,2013-08-24 11:56:00,
2013-08-24 13:01:00,60.6,55.4,29.42,WSW,248,5.8,5.8,83,0.00,CLR,,0.04,WeatherDisplay:10.37,2013-08-24 12:01:00,
2013-08-24 13:06:00,61.0,55.8,29.42,SW,225,2.3,2.8,83,0.00,CLR,,0.04,WeatherDisplay:10.37,2013-08-24 12:06:00,
2013-08-24 13:11:00,61.2,56.0,29.42,WNW,292,3.5,3.5,83,0.00,CLR,,0.04,WeatherDisplay:10.37,2013-08-24 12:11:00,
2013-08-24 13:16:00,61.3,56.1,29.42,West,270,5.8,5.8,83,0.00,CLR,,0.04,WeatherDisplay:10.37,2013-08-24 12:16:00,
2013-08-24 13:21:00,61.3,55.8,29.42,WSW,248,2.3,2.3,82,0.00,CLR,,0.04,WeatherDisplay:10.37,2013-08-24 12:21:00,
2013-08-24 13:26:00,61.3,55.5,29.42,SW,225,1.2,1.2,81,0.00,CLR,,0.04,WeatherDisplay:10.37,2013-08-24 12:26:00,
2013-08-24 13:31:00,61.3,55.5,29.42,NNW,338,2.3,2.3,81,0.00,CLR,,0.04,WeatherDisplay:10.37,2013-08-24 12:31:00,
2013-08-24 13:36:00,61.5,55.6,29.42,WSW,248,3.5,3.5,81,0.00,CLR,,0.04,WeatherDisplay:10.37,2013-08-24 12:36:00,
2013-08-24 13:41:00,61.5,55.6,29.42,West,270,3.5,3.5,81,0.00,CLR,,0.04,WeatherDisplay:10.37,2013-08-24 12:41:00,
2013-08-24 13:46:00,61.5,55.6,29.42,WNW,292,9.2,9.2,81,0.00,CLR,,0.04,WeatherDisplay:10.37,2013-08-24 12:46:00,
2013-08-24 13:51:00,61.9,55.6,29.42,SSW,202,2.3,2.3,80,0.00,CLR,,0.04,WeatherDisplay:10.37,2013-08-24 12:51:00,
2013-08-24 13:56:00,61.9,55.6,29.42,WSW,248,5.8,5.8,80,0.00,CLR,,0.04,WeatherDisplay:10.37,2013-08-24 12:56:00,
2013-08-24 14:01:00,61.9,55.6,29.42,WSW,248,5.8,5.8,80,0.00,CLR,,0.04,WeatherDisplay:10.37,2013-08-24 13:01:00,
2013-08-24 14:06:00,61.9,55.6,29.42,SE,135,1.2,5.3,80,0.00,CLR,,0.04,WeatherDisplay:10.37,2013-08-24 13:06:00,
2013-08-24 14:11:00,62.1,55.5,29.42,WNW,292,6.9,6.9,79,0.00,CLR,,0.04,WeatherDisplay:10.37,2013-08-24 13:11:00,
2013-08-24 14:16:00,62.1,55.5,29.42,WSW,248,1.2,6.0,79,0.00,CLR,,0.04,WeatherDisplay:10.37,2013-08-24 13:16:00,
2013-08-24 14:21:00,61.9,55.3,29.42,WSW,248,9.2,9.2,79,0.00,CLR,,0.04,WeatherDisplay:10.37,2013-08-24 13:21:00,
2013-08-24 14:26:00,61.9,54.9,29.42,SSW,202,10.4,10.4,78,0.00,CLR,,0.04,WeatherDisplay:10.37,2013-08-24 13:26:00,
2013-08-24 14:31:00,61.7,54.8,29.42,South,180,2.3,4.0,78,0.00,CLR,,0.04,WeatherDisplay:10.37,2013-08-24 13:31:00,
2013-08-24 14:36:00,61.7,54.8,29.42,SE,135,2.3,2.6,78,0.00,CLR,,0.04,WeatherDisplay:10.37,2013-08-24 13:36:00,
2013-08-24 14:41:00,61.7,54.8,29.42,West,270,3.5,5.5,78,0.00,CLR,,0.04,WeatherDisplay:10.37,2013-08-24 13:41:00,
2013-08-24 14:46:00,61.7,54.8,29.42,SW,225,3.5,4.0,78,0.00,CLR,,0.04,WeatherDisplay:10.37,2013-08-24 13:46:00,
2013-08-24 14:51:00,61.7,54.4,29.42,WSW,248,3.5,5.7,77,0.00,CLR,,0.04,WeatherDisplay:10.37,2013-08-24 13:51:00,
2013-08-24 14:56:00,61.9,54.9,29.42,WSW,248,8.1,8.1,78,0.00,CLR,,0.04,WeatherDisplay:10.37,2013-08-24 13:56:00,
2013-08-24 15:01:00,61.9,54.6,29.41,SSW,202,3.5,3.5,77,0.00,CLR,,0.04,WeatherDisplay:10.37,2013-08-24 14:01:00,
2013-08-24 15:06:00,61.9,54.6,29.41,South,180,1.2,2.1,77,0.00,CLR,,0.04,WeatherDisplay:10.37,2013-08-24 14:06:00,
2013-08-24 15:11:00,61.9,54.6,29.41,West,270,4.6,4.6,77,0.00,CLR,,0.04,WeatherDisplay:10.37,2013-08-24 14:11:00,
2013-08-24 15:16:00,61.9,54.6,29.41,SSW,202,3.5,3.8,77,0.00,CLR,,0.04,WeatherDisplay:10.37,2013-08-24 14:16:00,
2013-08-24 15:21:00,62.2,54.9,29.41,South,180,4.6,4.6,77,0.00,CLR,,0.04,WeatherDisplay:10.37,2013-08-24 14:21:00,
2013-08-24 15:26:00,62.4,55.1,29.42,SSE,158,0.0,2.2,77,0.00,CLR,,0.04,WeatherDisplay:10.37,2013-08-24 14:26:00,
2013-08-24 15:31:00,62.4,54.8,29.42,West,270,3.5,3.5,76,0.00,CLR,,0.04,WeatherDisplay:10.37,2013-08-24 14:31:00,
2013-08-24 15:36:00,62.4,54.8,29.42,SSW,202,1.2,4.3,76,0.00,CLR,,0.04,WeatherDisplay:10.37,2013-08-24 14:36:00,
2013-08-24 15:41:00,62.4,54.8,29.42,SW,225,8.1,8.1,76,0.00,CLR,,0.04,WeatherDisplay:10.37,2013-08-24 14:41:00,
2013-08-24 15:46:00,62.4,54.8,29.42,SSW,202,0.0,2.1,76,0.00,CLR,,0.04,WeatherDisplay:10.37,2013-08-24 14:46:00,
2013-08-24 15:51:00,62.4,54.8,29.42,SSW,202,1.2,1.2,76,0.00,CLR,,0.04,WeatherDisplay:10.37,2013-08-24 14:51:00,
2013-08-24 15:56:00,62.4,54.8,29.41,WSW,248,5.8,6.1,76,0.00,CLR,,0.04,WeatherDisplay:10.37,2013-08-24 14:56:00,
2013-08-24 16:01:00,62.4,54.8,29.41,West,270,4.6,4.6,76,0.00,CLR,,0.04,WeatherDisplay:10.37,2013-08-24 15:01:00,
2013-08-24 16:06:00,62.4,54.8,29.42,WSW,248,5.8,5.8,76,0.00,CLR,,0.04,WeatherDisplay:10.37,2013-08-24 15:06:00,
2013-08-24 16:11:00,62.4,54.8,29.42,WSW,248,6.9,6.9,76,0.00,CLR,,0.04,WeatherDisplay:10.37,2013-08-24 15:11:00,
2013-08-24 16:16:00,62.4,54.8,29.42,West,270,2.3,2.3,76,0.00,CLR,,0.04,WeatherDisplay:10.37,2013-08-24 15:16:00,
2013-08-24 16:21:00,62.4,54.4,29.42,South,180,6.9,6.9,75,0.00,CLR,,0.04,WeatherDisplay:10.37,2013-08-24 15:21:00,
2013-08-24 16:26:00,62.4,54.4,29.41,NW,315,0.0,2.9,75,0.00,CLR,,0.04,WeatherDisplay:10.37,2013-08-24 15:26:00,
2013-08-24 16:31:00,62.2,53.8,29.42,SW,225,1.2,1.4,74,0.00,CLR,,0.04,WeatherDisplay:10.37,2013-08-24 15:31:00,
2013-08-24 16:36:00,61.9,53.9,29.41,West,270,1.2,4.5,75,0.00,CLR,,0.04,WeatherDisplay:10.37,2013-08-24 15:36:00,
2013-08-24 16:41:00,61.9,53.9,29.41,West,270,0.0,2.0,75,0.00,CLR,,0.04,WeatherDisplay:10.37,2013-08-24 15:41:00,
2013-08-24 16:46:00,61.9,53.9,29.41,WSW,248,4.6,4.6,75,0.00,CLR,,0.04,WeatherDisplay:10.37,2013-08-24 15:46:00,
2013-08-24 16:51:00,61.9,53.9,29.41,West,270,2.3,2.3,75,0.00,CLR,,0.04,WeatherDisplay:10.37,2013-08-24 15:51:00,
2013-08-24 16:56:00,61.7,53.7,29.41,WSW,248,1.2,4.9,75,0.00,CLR,,0.04,WeatherDisplay:10.37,2013-08-24 15:56:00,
2013-08-24 17:01:00,61.5,53.2,29.41,WSW,248,2.3,2.3,74,0.00,CLR,,0.04,WeatherDisplay:10.37,2013-08-24 16:01:00,
2013-08-24 17:06:00,61.5,53.5,29.40,WNW,292,3.5,3.5,75,0.00,CLR,,0.04,WeatherDisplay:10.37,2013-08-24 16:06:00,
2013-08-24 17:11:00,61.5,53.5,29.40,WSW,248,9.2,9.2,75,0.00,CLR,,0.04,WeatherDisplay:10.37,2013-08-24 16:11:00,
2013-08-24 17:16:00,61.3,53.3,29.40,West,270,2.3,2.7,75,0.00,CLR,,0.04,WeatherDisplay:10.37,2013-08-24 16:16:00,
2013-08-24 17:21:00,61.3,53.3,29.41,SW,225,4.6,4.6,75,0.00,CLR,,0.04,WeatherDisplay:10.37,2013-08-24 16:21:00,
2013-08-24 17:26:00,61.3,53.3,29.40,SW,225,3.5,5.0,75,0.00,CLR,,0.04,WeatherDisplay:10.37,2013-08-24 16:26:00,
2013-08-24 17:31:00,61.3,53.7,29.41,SSW,202,2.3,3.6,76,0.00,CLR,,0.04,WeatherDisplay:10.37,2013-08-24 16:31:00,
2013-08-24 17:36:00,61.3,53.3,29.41,WSW,248,1.2,2.3,75,0.00,CLR,,0.04,WeatherDisplay:10.37,2013-08-24 16:36:00,
2013-08-24 17:41:00,61.2,53.2,29.41,WSW,248,1.2,1.4,75,0.00,CLR,,0.04,WeatherDisplay:10.37,2013-08-24 16:41:00,
2013-08-24 17:46:00,61.2,53.2,29.41,WSW,248,2.3,2.3,75,0.00,CLR,,0.04,WeatherDisplay:10.37,2013-08-24 16:46:00,
2013-08-24 17:51:00,61.2,53.2,29.40,WSW,248,8.1,8.1,75,0.00,CLR,,0.04,WeatherDisplay:10.37,2013-08-24 16:51:00,
2013-08-24 17:56:00,61.0,53.0,29.40,WSW,248,3.5,3.5,75,0.00,CLR,,0.04,WeatherDisplay:10.37,2013-08-24 16:56:00,
2013-08-24 18:01:00,61.0,53.0,29.41,WSW,248,2.3,2.3,75,0.00,CLR,,0.04,WeatherDisplay:10.37,2013-08-24 17:01:00,
2013-08-24 18:06:00,61.0,53.4,29.40,West,270,2.3,2.3,76,0.00,CLR,,0.04,WeatherDisplay:10.37,2013-08-24 17:06:00,
2013-08-24 18:11:00,61.0,53.4,29.40,West,270,3.5,3.5,76,0.00,CLR,,0.04,WeatherDisplay:10.37,2013-08-24 17:11:00,
2013-08-24 18:16:00,61.0,53.4,29.40,WSW,248,3.5,3.5,76,0.00,CLR,,0.04,WeatherDisplay:10.37,2013-08-24 17:16:00,
2013-08-24 18:21:00,60.8,53.2,29.40,West,270,2.3,2.3,76,0.00,CLR,,0.04,WeatherDisplay:10.37,2013-08-24 17:21:00,
2013-08-24 18:26:00,60.6,53.0,29.40,WSW,248,4.6,4.6,76,0.00,CLR,,0.04,WeatherDisplay:10.37,2013-08-24 17:26:00,
2013-08-24 18:31:00,60.6,53.0,29.40,WSW,248,3.5,3.5,76,0.00,CLR,,0.04,WeatherDisplay:10.37,2013-08-24 17:31:00,
2013-08-24 18:36:00,60.6,53.0,29.40,WSW,248,4.6,4.6,76,0.00,CLR,,0.04,WeatherDisplay:10.37,2013-08-24 17:36:00,
2013-08-24 18:41:00,60.6,53.0,29.40,West,270,4.6,4.6,76,0.00,CLR,,0.04,WeatherDisplay:10.37,2013-08-24 17:41:00,
2013-08-24 18:46:00,60.6,53.0,29.40,West,270,5.6,5.6,76,0.00,CLR,,0.04,WeatherDisplay:10.37,2013-08-24 17:46:00,
2013-08-24 18:51:00,60.6,53.0,29.40,SW,225,5.8,5.8,76,0.00,CLR,,0.04,WeatherDisplay:10.37,2013-08-24 17:51:00,
2013-08-24 18:56:00,60.6,52.6,29.40,SSE,158,0.0,0.0,75,0.00,CLR,,0.04,WeatherDisplay:10.37,2013-08-24 17:56:00,
2013-08-24 19:01:00,60.6,52.6,29.40,WNW,292,2.3,2.3,75,0.00,CLR,,0.04,WeatherDisplay:10.37,2013-08-24 18:01:00,
2013-08-24 19:06:00,60.6,52.6,29.41,West,270,0.0,0.0,75,0.00,CLR,,0.04,WeatherDisplay:10.37,2013-08-24 18:06:00,
2013-08-24 19:11:00,60.6,52.6,29.40,WSW,248,3.5,3.5,75,0.00,CLR,,0.04,WeatherDisplay:10.37,2013-08-24 18:11:00,
2013-08-24 19:16:00,60.6,52.6,29.40,West,270,3.5,3.5,75,0.00,CLR,,0.04,WeatherDisplay:10.37,2013-08-24 18:16:00,
2013-08-24 19:21:00,60.6,52.6,29.41,SW,225,2.3,2.3,75,0.00,CLR,,0.04,WeatherDisplay:10.37,2013-08-24 18:21:00,
2013-08-24 19:26:00,60.6,52.6,29.41,SW,225,2.3,2.3,75,0.00,CLR,,0.04,WeatherDisplay:10.37,2013-08-24 18:26:00,
2013-08-24 19:31:00,60.4,52.5,29.41,West,270,2.3,2.3,75,0.00,CLR,,0.04,WeatherDisplay:10.37,2013-08-24 18:31:00,
2013-08-24 19:36:00,60.4,52.5,29.41,West,270,0.0,0.0,75,0.00,CLR,,0.04,WeatherDisplay:10.37,2013-08-24 18:36:00,
2013-08-24 19:41:00,60.4,52.5,29.41,WSW,248,0.0,0.0,75,0.00,CLR,,0.04,WeatherDisplay:10.37,2013-08-24 18:41:00,
2013-08-24 19:46:00,60.3,52.7,29.41,West,270,0.0,0.0,76,0.00,CLR,,0.04,WeatherDisplay:10.37,2013-08-24 18:46:00,
2013-08-24 19:51:00,60.1,52.5,29.41,West,270,2.3,2.3,76,0.00,CLR,,0.04,WeatherDisplay:10.37,2013-08-24 18:51:00,
2013-08-24 19:56:00,60.1,52.5,29.42,WSW,248,0.0,1.8,76,0.00,CLR,,0.04,WeatherDisplay:10.37,2013-08-24 18:56:00,
2013-08-24 20:01:00,60.1,52.5,29.42,WSW,248,1.2,1.2,76,0.00,CLR,,0.04,WeatherDisplay:10.37,2013-08-24 19:01:00,
2013-08-24 20:06:00,60.1,52.5,29.42,West,270,2.3,2.3,76,0.00,CLR,,0.04,WeatherDisplay:10.37,2013-08-24 19:06:00,
2013-08-24 20:11:00,59.9,52.3,29.42,SW,225,1.2,1.3,76,0.00,CLR,,0.04,WeatherDisplay:10.37,2013-08-24 19:11:00,
2013-08-24 20:16:00,59.9,52.3,29.42,SSW,202,0.0,0.7,76,0.00,CLR,,0.04,WeatherDisplay:10.37,2013-08-24 19:16:00,
2013-08-24 20:21:00,59.7,52.1,29.42,WSW,248,1.2,1.2,76,0.00,CLR,,0.04,WeatherDisplay:10.37,2013-08-24 19:21:00,
2013-08-24 20:26:00,59.7,52.1,29.42,West,270,2.3,2.3,76,0.00,CLR,,0.04,WeatherDisplay:10.37,2013-08-24 19:26:00,
2013-08-24 20:31:00,59.5,52.0,29.43,WSW,248,1.2,1.2,76,0.00,CLR,,0.04,WeatherDisplay:10.37,2013-08-24 19:31:00,
2013-08-24 20:36:00,59.5,52.0,29.43,West,270,1.2,0.0,76,0.00,CLR,,0.04,WeatherDisplay:10.37,2013-08-24 19:36:00,
2013-08-24 20:41:00,59.4,51.8,29.42,West,270,0.0,0.0,76,0.00,CLR,,0.04,WeatherDisplay:10.37,2013-08-24 19:41:00,
2013-08-24 20:46:00,59.4,51.8,29.43,WSW,248,0.0,0.6,76,0.00,CLR,,0.04,WeatherDisplay:10.37,2013-08-24 19:46:00,
2013-08-24 20:51:00,59.2,51.6,29.43,SSW,202,0.0,0.0,76,0.00,CLR,,0.04,WeatherDisplay:10.37,2013-08-24 19:51:00,
2013-08-24 20:56:00,59.2,51.6,29.43,South,180,0.0,0.0,76,0.00,CLR,,0.04,WeatherDisplay:10.37,2013-08-24 19:56:00,
2013-08-24 21:01:00,58.8,51.6,29.43,WSW,248,2.3,2.3,77,0.00,CLR,,0.04,WeatherDisplay:10.37,2013-08-24 20:01:00,
2013-08-24 21:06:00,58.8,51.6,29.43,SW,225,0.0,0.9,77,0.00,CLR,,0.04,WeatherDisplay:10.37,2013-08-24 20:06:00,
2013-08-24 21:11:00,58.6,51.4,29.44,SW,225,0.0,0.0,77,0.00,CLR,,0.04,WeatherDisplay:10.37,2013-08-24 20:11:00,
2013-08-24 21:16:00,58.5,51.3,29.44,SW,225,0.0,0.0,77,0.00,CLR,,0.04,WeatherDisplay:10.37,2013-08-24 20:16:00,
2013-08-24 21:21:00,58.3,51.1,29.44,SSW,202,0.0,0.0,77,0.00,CLR,,0.04,WeatherDisplay:10.37,2013-08-24 20:21:00,
2013-08-24 21:26:00,57.9,50.8,29.44,SSW,202,1.2,1.4,77,0.00,CLR,,0.04,WeatherDisplay:10.37,2013-08-24 20:26:00,
2013-08-24 21:31:00,57.9,50.8,29.44,South,180,0.0,0.0,77,0.00,CLR,,0.04,WeatherDisplay:10.37,2013-08-24 20:31:00,
2013-08-24 21:36:00,57.7,50.6,29.44,South,180,0.0,0.0,77,0.00,CLR,,0.04,WeatherDisplay:10.37,2013-08-24 20:36:00,
2013-08-24 21:41:00,57.6,50.4,29.44,SSW,202,2.3,2.3,77,0.00,CLR,,0.04,WeatherDisplay:10.37,2013-08-24 20:41:00,
2013-08-24 21:46:00,57.6,50.8,29.44,South,180,0.0,0.0,78,0.00,CLR,,0.04,WeatherDisplay:10.37,2013-08-24 20:46:00,
2013-08-24 21:51:00,57.4,50.6,29.44,South,180,0.0,0.0,78,0.00,CLR,,0.04,WeatherDisplay:10.37,2013-08-24 20:51:00,
2013-08-24 21:56:00,57.4,50.6,29.44,South,180,0.0,0.0,78,0.00,CLR,,0.04,WeatherDisplay:10.37,2013-08-24 20:56:00,
2013-08-24 22:01:00,57.2,50.4,29.44,South,180,1.2,1.3,78,0.00,CLR,,0.04,WeatherDisplay:10.37,2013-08-24 21:01:00,
2013-08-24 22:06:00,57.0,50.2,29.44,South,180,2.3,2.3,78,0.00,CLR,,0.04,WeatherDisplay:10.37,2013-08-24 21:06:00,
2013-08-24 22:11:00,57.0,50.2,29.44,SSW,202,0.0,0.0,78,0.00,CLR,,0.04,WeatherDisplay:10.37,2013-08-24 21:11:00,
2013-08-24 22:16:00,56.8,50.1,29.44,SSE,158,0.0,0.0,78,0.00,CLR,,0.04,WeatherDisplay:10.37,2013-08-24 21:16:00,
2013-08-24 22:21:00,56.8,50.1,29.45,South,180,0.0,0.0,78,0.00,CLR,,0.04,WeatherDisplay:10.37,2013-08-24 21:21:00,
2013-08-24 22:26:00,56.5,49.7,29.45,South,180,1.2,1.2,78,0.00,CLR,,0.04,WeatherDisplay:10.37,2013-08-24 21:26:00,
2013-08-24 22:31:00,56.5,49.7,29.45,SW,225,0.0,0.0,78,0.00,CLR,,0.04,WeatherDisplay:10.37,2013-08-24 21:31:00,
2013-08-24 22:36:00,56.3,49.5,29.45,SSW,202,1.2,1.2,78,0.00,CLR,,0.04,WeatherDisplay:10.37,2013-08-24 21:36:00,
2013-08-24 22:41:00,56.1,49.7,29.45,SSW,202,0.0,0.0,79,0.00,CLR,,0.04,WeatherDisplay:10.37,2013-08-24 21:41:00,
2013-08-24 22:46:00,55.9,49.5,29.45,SSW,202,0.0,0.0,79,0.00,CLR,,0.04,WeatherDisplay:10.37,2013-08-24 21:46:00,
2013-08-24 22:51:00,55.9,49.5,29.45,SSW,202,1.2,1.2,79,0.00,CLR,,0.04,WeatherDisplay:10.37,2013-08-24 21:51:00,
2013-08-24 22:56:00,55.8,49.3,29.46,South,180,1.2,1.2,79,0.00,CLR,,0.04,WeatherDisplay:10.37,2013-08-24 21:56:00,
2013-08-24 23:01:00,55.6,49.2,29.46,South,180,0.0,0.0,79,0.00,CLR,,0.04,WeatherDisplay:10.37,2013-08-24 22:01:00,
2013-08-24 23:06:00,55.6,49.2,29.46,South,180,0.0,0.0,79,0.00,CLR,,0.04,WeatherDisplay:10.37,2013-08-24 22:06:00,
2013-08-24 23:11:00,55.4,49.0,29.46,South,180,0.0,0.0,79,0.00,CLR,,0.04,WeatherDisplay:10.37,2013-08-24 22:11:00,
2013-08-24 23:16:00,55.4,49.0,29.46,South,180,0.0,0.0,79,0.00,CLR,,0.04,WeatherDisplay:10.37,2013-08-24 22:16:00,
2013-08-24 23:21:00,55.2,48.8,29.46,South,180,0.0,0.0,79,0.00,CLR,,0.04,WeatherDisplay:10.37,2013-08-24 22:21:00,
2013-08-24 23:26:00,55.2,49.2,29.46,South,180,0.0,0.0,80,0.00,CLR,,0.04,WeatherDisplay:10.37,2013-08-24 22:26:00,
2013-08-24 23:31:00,55.2,49.2,29.46,South,180,0.0,0.0,80,0.00,CLR,,0.04,WeatherDisplay:10.37,2013-08-24 22:31:00,
2013-08-24 23:36:00,55.0,49.0,29.46,South,180,0.0,0.0,80,0.00,CLR,,0.04,WeatherDisplay:10.37,2013-08-24 22:36:00,
2013-08-24 23:41:00,55.0,49.0,29.46,South,180,0.0,0.0,80,0.00,CLR,,0.04,WeatherDisplay:10.37,2013-08-24 22:41:00,
2013-08-24 23:46:00,54.9,48.8,29.46,South,180,0.0,0.0,80,0.00,CLR,,0.04,WeatherDisplay:10.37,2013-08-24 22:46:00,
2013-08-24 23:51:00,54.7,48.6,29.46,South,180,0.0,0.0,80,0.00,CLR,,0.04,WeatherDisplay:10.37,2013-08-24 22:51:00,
2013-08-24 23:56:00,54.7,49.0,29.46,South,180,0.0,0.0,81,0.00,CLR,,0.04,WeatherDisplay:10.37,2013-08-24 22:56:00,